This is the latest recevied weather packets stored in our database for station/object N7JP. If no packets are shown the sender has not sent any weather packets the latest 10 day(s).
| Time | Temp. | Humidity | Pressure | Rain* | Wind** | Luminosity | Snow |
|---|---|---|---|---|---|---|---|
| 1788140420 | 64° F | 67% | 760 mmHg | 0 in | - | - | - |
| 1788139498 | 65° F | 65% | 760 mmHg | 0 in | - | - | - |
| 1788138596 | 65° F | 65% | 760.2 mmHg | 0 in | - | - | - |
| 1788137696 | 66° F | 64% | 760.3 mmHg | 0 in | - | - | - |
| 1788136796 | 66° F | 62% | 760.3 mmHg | 0 in | - | - | - |
| 1788135896 | 67° F | 60% | 760.4 mmHg | 0 in | - | - | - |
| 1788134975 | 69° F | 56% | 760.3 mmHg | 0 in | - | - | - |
| 1788134076 | 69° F | 55% | 760.3 mmHg | 0 in | - | - | - |
| 1788133169 | 69° F | 56% | 760.4 mmHg | 0 in | - | - | - |
| 1788132269 | 69° F | 54% | 760.4 mmHg | 0 in | - | - | - |
| 1788131356 | 70° F | 52% | 760.5 mmHg | 0 in | - | - | - |
| 1788130455 | 72° F | 51% | 760.4 mmHg | 0 in | - | - | - |
| 1788129556 | 71° F | 54% | 760.5 mmHg | 0 in | - | - | - |
| 1788128654 | 71° F | 53% | 760.6 mmHg | 0 in | - | - | - |
| 1788127751 | 69° F | 55% | 760.8 mmHg | 0 in | - | - | - |
| 1788126848 | 69° F | 55% | 760.9 mmHg | 0 in | - | - | - |
| 1788125949 | 69° F | 56% | 760.9 mmHg | 0 in | - | - | - |
| 1788125048 | 68° F | 56% | 761 mmHg | 0 in | - | - | - |
| 1788124123 | 67° F | 58% | 761.1 mmHg | 0 in | - | - | - |
| 1788123218 | 67° F | 61% | 761.2 mmHg | 0 in | - | - | - |
| 1788122317 | 67° F | 62% | 761.2 mmHg | 0 in | - | - | - |
| 1788121418 | 67° F | 65% | 761.2 mmHg | 0 in | - | - | - |
| 1788120515 | 65° F | 67% | 761.2 mmHg | 0 in | - | - | - |
| 1788119615 | 64° F | 69% | 761.2 mmHg | 0 in | - | - | - |
| 1788118703 | 65° F | 66% | 761.2 mmHg | 0 in | - | - | - |
* Rain latest hour (hover to see other rain measurements)
** Current wind speed in m/s (hover to see current wind gust speed)